SCP
0 -0 0 0 0 0 0 0 0 0 0 0 0 0 0 0 0 0 0 0 0 0 0 0 0 0 0 0 0 -0 0 0 0 0 0 0 0 0 0 0 0 0 0 0 0 0 0
0 -0 -0 -0 0 0 0 0 0 -0 0 0 0 -0 -0 -0 -0 -0 0 0 0 0 0 0 0 0 0 0 0 0 0 0 0 0 0 0 0 0 0 0 0 0 0 0 0 0 0
-0 0 0 0 0 0 -0 -0 -0 -0 -0 -0 -0 -0 -0 -0 -0 -0 -0 -0 0 0 0 0 0 0 0 0 0 0 0 0 0 0 0 0 0 0 0 0 0 0 0 0 0 0 0
-0 -0 0 0 -0 -0 -0 -0 -0 -0 -0 -0 -0 -0 -0 -0 -0 -0 -0 -0 0 0 -0 0 0 0 0 0 0 0 0 0 0 0 0 0 0 0 0 0 0 0 0 0 0 0 0
-0 -0 -0 -0 -0 -0 -0 -0 -0 -0 -0 -0 -0 -0 -0 -0 -0 -0 -0 -0 0 0 -0 0 0 0 -0 -0 0 0 0 0 0 0 0 0 0 0 0 0 0 0 0 0 0 0 0
-0 -0 -0 -0 -0 -0 -0 -0 -0 -0 -0 -0 -0 -0 -0 -0 -0 -0 -0 0 0 0 0 0 0 0 0 0 0 0 0 -0 0 0 0 0 0 0 0 0 0 0 0 0 0 0 0
-0 -0 -0 -0 -0 -0 0 -0 -0 -0 -0 -0 -0 -0 -0 -0 -0 -0 0 0 0 -0 0 0 0 0 0 0 -0 0 0 0 0 0 0 0 0 0 0 0 0 0 0 0 0 0 0
-0 -0 0 0 -0 -0 -0 -0 -0 -0 -0 -0 -0 -0 -0 -0 -0 -0 0 0 0 0 0 0 0 0 0 0 0 0 0 0 0 0 0 0 0 0 0 0 0 0 0 0 0 0 0
-0 -0 -0 -0 -0 -0 0 -0 -0 -0 -0 -0 -0 -0 -0 -0 -0 0 0 0 0 0 0 0 -0 0 0 0 0 0 0 0 0 0 0 0 0 0 0 0 0 0 0 0 0 0 0
-0 -0 -0 -0 -0 -0 -0 -0 -0 -0 -0 -0 -0 -0 -0 -0 0 0 0 0 0 0 0 0 -0 -0 -0 -0 0 0 0 0 0 0 0 0 0 0 0 0 0 0 0 0 0 0 0
-0 -0 -0 0 0 -0 -0 -0 -0 -0 -0 -0 -0 0 -0 -0 0 0 0 0 0 0 0 -0 0 0 0 -0 0 0 -0 0 0 0 0 0 0 0 0 0 0 0 0 0 0 0 0
0 0 0 0 0 -0 0 0 -0 -0 -0 -0 -0 0 -0 0 0 0 0 0 0 0 0 -0 -0 0 0 0 0 0 0 0 0 0 0 0 0 0 0 0 0 0 0 0 0 0 0
0 0 0 0 0 0 0 0 0 0 0 0 0 0 -0 0 0 0 0 0 0 0 -0 -0 -0 -0 -0 0 0 -0 0 0 0 0 0 0 0 0 0 0 0 0 0 0 0 0 0
0 0 0 0 0 0 0 0 0 0 0 0 0 0 0 0 0 0 0 0 0 0 0 -0 0 0 -0 0 0 -0 -0 0 -0 -0 0 0 0 0 0 0 0 0 0 0 0 0 0
0 0 0 0 0 0 0 0 0 0 0 0 0 0 0 0 0 0 0 0 0 0 0 -0 -0 -0 -0 0 -0 0 0 0 0 0 0 0 0 0 0 0 0 0 0 0 0 0 0
0 0 0 0 0 0 0 0 0 0 0 0 0 0 0 0 0 0 0 0 0 0 0 0 0 0 -0 0 0 0 0 0 0 0 0 0 0 0 0 0 0 0 0 0 0 0 0
0 0 0 0 0 0 0 0 0 0 0 0 0 0 0 0 0 0 0 0 0 0 0 0 0 0 -0 -0 0 0 0 0 -0 -0 0 0 -0 0 0 -0 0 0 0 0 0 0 0
0 0 0 0 0 0 0 0 0 0 0 0 0 0 0 0 0 0 0 0 0 0 0 0 0 -0 -0 -0 -0 0 0 0 0 -0 0 0 0 -0 -0 0 0 0 0 0 0 0 0
0 0 0 0 0 0 0 0 0 0 0 0 0 0 0 0 0 0 0 0 0 0 0 0 0 0 0 -0 -0 0 -0 0 0 0 0 0 0 -0 0 0 0 0 0 0 0 0 0
0 0 0 0 0 0 0 0 0 0 0 0 0 0 0 0 0 0 0 0 0 0 0 -0 0 0 0 -0 -0 0 -0 0 0 0 0 0 0 -0 0 0 0 0 0 0 0 0 0
0 0 0 0 0 0 0 0 0 0 0 0 0 0 0 0 0 0 0 0 0 0 0 0 0 -0 -0 0 -0 0 -0 -0 0 -0 0 0 0 -0 0 0 0 0 0 0 0 0 0
0 0 0 0 0 0 0 0 0 0 0 0 0 0 0 0 0 0 0 0 0 0 0 0 0 0 -0 0 0 0 -0 -0 -0 0 0 0 0 0 -0 0 0 0 0 0 0 0 -0
0 0 0 0 0 0 0 0 0 0 0 0 0 0 0 0 0 0 0 0 0 0 0 0 0 -0 0 0 0 -0 -0 -0 -0 -0 -0 0 0 -0 0 -0 0 0 0 0 0 0 0
0 0 0 0 0 0 0 0 0 0 0 0 0 0 0 0 0 0 0 0 -0 0 0 0 0 0 0 0 -0 -0 -0 -0 -0 -0 -0 -0 -0 0 0 0 0 0 0 0 0 0 0
0 0 0 0 0 0 0 0 0 0 0 0 0 0 0 0 0 0 0 0 0 0 0 0 0 0 -0 0 0 0 0 -0 -0 0 0 -0 -0 0 0 0 0 0 0 0 0 0 0
0 0 0 0 0 0 0 0 0 0 0 0 0 0 0 0 0 0 0 0 0 0 0 0 0 0 -0 -0 0 0 0 0 0 0 0 -0 0 -0 -0 0 0 0 0 0 0 0 0
0 0 0 0 0 0 0 0 0 0 0 0 0 0 0 0 0 0 0 0 0 0 0 0 0 0 -0 -0 0 0 0 0 0 0 0 0 -0 -0 0 0 0 -0 0 0 0 0 0
0 0 0 0 0 0 0 0 0 0 0 0 0 0 0 0 0 0 0 0 0 0 0 0 0 0 0 0 0 0 0 0 0 0 0 0 0 0 0 0 -0 0 0 0 0 0 0
0 0 0 0 0 0 0 0 0 0 0 0 0 0 0 0 0 0 0 0 0 0 0 0 0 0 0 0 0 0 0 0 0 0 0 0 0 0 0 0 0 0 0 0 0 0 0
Wind_Speed_500mb
33 33 34 33 34 33 32 32 32 32 34 35 36 36 37 38 39 40 39 39 41 43 44 47 45 44 46 23 50 24 25 11 6 10 54 57 48 39 15 13 33 46 40 51 48 53 60
34 37 37 37 38 39 38 36 35 34 35 36 36 37 38 39 40 41 41 45 46 45 45 46 46 48 26 29 30 24 50 56 28 21 30 52 27 39 12 13 16 11 13 33 41 53 57
36 36 36 37 37 37 37 36 35 35 35 35 36 37 38 39 38 38 39 44 45 43 44 44 43 42 33 61 52 40 46 38 34 32 29 37 53 28 19 7 56 50 33 32 46 29 17
34 37 35 36 36 37 39 40 41 42 43 44 47 49 52 53 53 48 47 41 33 36 36 38 34 29 29 60 47 36 31 51 46 32 28 27 25 23 20 19 18 8 11 29 49 38 24
32 34 36 37 39 41 43 45 47 48 50 51 49 49 50 52 45 44 37 40 34 32 30 30 33 21 36 24 27 16 20 38 49 35 25 25 20 29 18 5 4 12 23 32 44 17 5
34 35 37 39 41 44 46 47 48 50 51 51 50 50 56 52 45 38 30 38 44 20 29 30 12 14 25 39 9 37 12 6 22 17 25 23 14 13 8 12 37 21 37 34 22 9 27
34 35 36 39 41 44 46 48 49 51 51 52 52 51 48 41 34 18 28 41 58 5 47 27 47 50 76 82 83 60 12 14 20 17 14 15 7 38 41 30 20 20 23 32 8 18 24
36 38 40 41 41 44 47 48 50 51 50 50 48 49 44 29 22 19 31 35 41 45 34 60 55 68 85 95 80 93 39 18 8 13 9 8 38 21 15 14 21 30 34 37 18 20 15
39 41 43 45 45 46 48 49 50 51 51 48 45 46 42 25 19 20 27 39 47 43 13 33 64 48 42 27 67 72 57 44 18 14 12 20 12 19 28 24 31 32 37 33 32 29 43
43 44 46 48 50 51 52 53 53 54 52 47 44 43 32 32 6 24 29 52 38 24 6 14 36 20 58 7 7 49 58 45 9 20 16 19 21 27 24 30 35 41 26 23 34 26 22
44 44 46 48 51 53 56 59 60 59 55 48 42 39 24 20 21 30 40 45 37 4 6 20 18 28 9 19 28 28 17 58 38 33 14 13 13 6 27 29 27 38 24 26 34 18 15
46 46 47 49 52 56 60 62 62 62 58 52 43 32 20 17 18 33 40 45 14 9 7 15 18 34 26 34 30 24 39 32 15 45 33 29 31 28 27 29 25 10 12 25 29 1 17
48 48 48 49 51 57 63 66 64 63 59 56 48 29 18 20 20 34 39 28 9 9 17 21 43 26 13 18 20 15 13 1 3 6 17 11 10 8 21 26 21 6 4 3 4 8 32
52 51 51 53 55 57 62 67 66 64 62 64 52 30 14 17 17 35 33 10 11 7 12 38 29 27 13 20 12 22 22 11 7 20 6 8 11 16 5 6 10 14 18 10 14 9 9
53 54 55 56 57 57 59 66 67 65 64 68 54 17 16 12 13 25 17 9 9 4 20 25 33 13 7 20 4 12 9 8 11 18 7 2 9 7 24 19 2 6 21 10 10 26 3
53 55 57 58 61 62 61 64 68 65 65 62 41 21 9 8 15 23 9 6 4 15 23 11 4 15 23 18 14 10 7 3 7 8 4 6 8 11 17 17 7 11 11 11 7 13 8
50 53 56 59 61 63 66 62 68 67 64 60 21 12 8 5 12 6 3 9 17 36 31 10 22 9 12 13 21 9 6 12 5 8 9 5 9 7 9 7 13 5 6 8 6 8 11
52 52 53 56 61 64 66 65 63 65 65 57 20 5 5 7 7 4 3 12 33 29 37 15 8 10 6 9 10 9 9 6 10 3 6 5 2 7 15 24 27 9 12 8 5 12 10
51 53 54 55 58 63 66 65 58 59 56 57 34 12 14 14 5 7 14 19 18 27 23 12 9 3 5 5 8 12 6 14 6 3 6 7 3 7 15 3 4 10 4 3 8 12 15
51 53 55 57 58 60 63 64 57 54 46 40 15 8 12 11 31 4 11 9 16 33 29 35 18 1 6 14 10 11 9 7 14 11 11 12 7 14 9 10 13 15 16 16 3 13 26
51 52 55 55 58 59 59 62 59 51 44 26 11 5 9 8 17 18 14 14 29 19 11 32 7 16 14 11 17 8 7 10 12 20 12 10 8 19 24 31 30 33 32 22 17 18 11
52 52 53 56 56 57 54 56 58 56 47 14 15 13 17 29 25 11 13 6 29 32 21 12 15 31 12 11 16 25 26 19 13 11 20 16 9 15 25 33 36 37 31 27 26 30 22
53 56 55 55 56 55 51 50 53 55 48 17 24 12 14 15 8 12 6 30 31 34 20 37 29 28 18 28 38 54 62 58 28 20 15 18 10 4 14 29 8 9 28 33 14 15 7
58 60 57 54 54 54 50 48 48 48 43 32 27 18 12 11 14 17 33 33 33 35 19 41 39 14 28 74 74 44 48 47 35 33 33 15 11 8 11 10 6 7 23 5 27 23 20
59 60 62 54 54 55 50 47 44 44 43 35 23 10 12 11 25 34 21 34 41 44 22 32 44 53 57 36 8 14 8 7 9 12 15 23 13 5 7 2 15 5 13 13 10 10 12
60 59 63 61 55 55 47 44 42 42 42 42 31 13 17 19 10 16 42 32 21 18 19 26 39 37 41 5 5 6 5 8 6 8 9 3 13 13 6 6 7 7 23 38 11 9 11
65 59 63 59 57 52 44 41 41 40 41 44 38 12 15 24 40 24 11 19 19 9 14 16 36 20 31 10 6 5 7 10 9 13 9 5 6 16 10 4 6 18 42 62 13 2 29
66 64 64 61 56 51 41 40 41 39 38 40 44 6 15 21 62 64 51 39 49 29 6 18 17 10 9 12 7 6 6 6 7 7 10 6 6 5 6 6 5 19 48 6 8 24 34
70 69 66 59 52 50 44 41 40 39 35 37 51 40 29 37 49 71 69 50 48 46 38 5 5 4 7 5 4 6 6 5 9 7 7 3 3 8 7 4 22 43 24 48 48 25 31
Wind_Direction_500mb
39 33 24 22 20 17 14 11 9 7 5 4 2 359 355 350 346 341 335 328 322 317 313 312 312 308 306 271 246 229 250 297 293 283 214 211 214 216 191 207 232 246 252 251 257 255 253
32 27 26 24 22 19 18 16 14 11 6 2 358 353 351 346 340 335 332 328 321 314 308 306 306 305 291 274 307 298 261 258 247 224 217 210 213 217 261 225 233 280 263 271 265 256 258
28 26 27 25 23 22 20 17 14 9 5 2 358 354 351 344 337 330 326 322 320 321 310 300 299 297 268 264 302 296 274 256 224 231 239 216 222 203 232 272 248 250 264 277 259 252 272
25 25 23 19 18 16 13 9 5 1 358 357 355 353 349 346 340 336 336 342 346 336 304 297 297 294 268 306 300 282 255 242 231 236 241 234 223 259 247 255 302 202 227 247 250 244 247
22 18 16 14 11 9 8 5 2 358 356 354 351 347 346 344 342 337 350 359 349 329 318 304 300 308 278 306 277 311 302 239 226 232 242 238 253 247 235 185 337 211 242 232 254 221 223
17 13 9 5 4 2 3 0 358 356 353 348 345 347 351 351 346 336 360 12 10 24 2 331 310 307 278 269 318 320 286 113 196 227 251 245 248 212 192 173 216 216 223 237 255 198 212
7 4 0 360 359 357 359 357 355 353 351 345 344 347 348 347 348 345 354 1 2 289 323 275 283 265 272 277 278 285 336 264 221 206 186 202 188 222 218 228 265 271 265 252 250 202 216
2 360 358 357 357 357 358 355 352 349 346 343 340 342 344 357 5 2 3 9 355 328 313 308 302 288 273 265 271 275 273 290 274 225 196 225 230 247 273 270 234 242 264 265 286 285 251
10 7 2 358 357 359 357 354 348 345 342 340 339 340 341 357 10 9 358 343 326 325 306 335 333 317 318 272 239 260 267 275 250 235 218 223 220 217 239 248 251 249 237 259 263 288 288
7 4 359 357 357 357 355 351 346 342 339 338 338 339 344 348 347 352 330 341 347 332 60 308 348 319 347 186 243 248 255 244 245 219 223 259 249 257 264 243 229 246 250 249 242 251 260
11 7 3 1 0 359 356 351 347 344 339 336 339 338 348 341 342 344 335 347 337 330 50 320 288 305 23 317 317 333 246 231 236 234 178 219 301 261 234 247 234 248 259 239 245 259 249
10 7 6 5 2 359 357 354 350 347 343 337 340 336 337 338 335 349 347 337 339 49 308 320 320 351 9 359 11 354 335 25 295 227 230 235 230 238 244 256 256 286 255 231 251 263 257
8 7 5 3 1 0 359 356 353 350 347 339 340 333 311 323 330 349 345 341 39 86 310 340 329 343 358 344 2 353 358 226 343 7 280 249 237 239 242 256 264 214 29 242 232 185 235
6 4 2 360 356 356 359 358 355 352 350 340 345 319 294 333 332 357 345 39 54 345 305 327 324 318 352 2 4 336 4 10 177 236 247 202 271 225 195 166 244 174 172 189 195 200 255
4 4 3 1 356 353 355 357 355 353 353 345 350 335 329 312 339 348 0 43 190 324 292 327 322 302 327 355 278 336 358 329 41 12 16 49 251 357 311 299 133 269 222 207 290 277 300
2 2 2 1 1 357 354 356 355 354 356 352 352 357 7 317 329 342 66 275 237 272 311 336 314 306 328 328 338 354 325 37 327 56 357 315 324 255 296 341 257 201 284 165 214 226 223
357 359 360 360 360 360 357 355 355 354 358 1 9 358 10 296 285 341 129 241 294 325 335 309 327 301 321 329 315 273 326 325 83 337 292 295 168 275 319 224 238 354 242 207 175 197 192
356 355 356 356 356 358 359 358 357 355 355 4 2 10 356 349 337 7 301 288 318 311 320 277 282 331 337 287 283 316 348 252 29 96 340 317 126 276 248 246 270 263 243 159 232 259 237
358 357 356 355 355 355 356 359 358 358 355 353 343 315 16 315 44 309 302 316 309 310 313 318 299 140 182 264 324 324 302 264 177 354 348 344 307 299 312 316 219 232 185 37 256 235 239
351 352 353 354 354 353 353 355 359 360 353 348 343 349 338 346 352 320 314 291 313 319 311 339 292 143 306 297 237 264 262 270 197 184 295 332 227 241 224 260 322 277 286 305 299 229 230
346 345 345 347 348 352 353 354 355 0 357 358 0 311 10 304 326 316 303 278 323 329 310 310 308 339 337 292 313 266 299 277 213 215 174 151 249 242 242 262 270 268 264 264 265 268 257
342 343 340 339 344 347 350 353 353 355 3 19 357 348 322 293 288 296 301 318 316 337 322 306 319 314 294 261 240 273 277 266 227 197 167 183 237 252 289 278 254 245 238 239 252 274 279
339 339 338 336 338 341 344 347 350 352 356 1 341 316 303 277 282 306 259 320 315 334 298 313 308 314 285 275 285 275 263 255 242 209 201 178 210 225 273 296 138 265 228 224 204 220 242
338 338 334 333 333 334 339 340 345 347 347 340 343 320 290 282 304 302 302 306 324 316 306 313 317 312 297 306 304 286 263 249 235 238 226 207 194 174 266 253 224 42 36 7 201 222 247
331 329 335 329 328 328 330 336 338 341 343 338 339 302 285 280 302 291 309 318 315 315 303 293 311 316 323 306 320 327 329 27 333 38 327 212 195 222 253 305 291 178 39 2 33 222 268
327 329 329 328 325 326 322 327 332 335 334 331 337 305 270 296 249 287 312 296 308 314 318 311 325 338 349 327 8 314 326 304 317 308 264 17 162 193 272 228 249 91 299 320 303 214 284
323 323 328 325 323 323 317 320 325 328 328 325 332 314 263 272 280 269 286 306 292 303 300 310 332 334 7 355 357 336 299 1 341 323 335 79 149 205 222 250 281 313 329 308 196 152 318
322 322 325 323 320 319 311 316 319 322 324 316 323 320 268 258 280 280 277 271 286 285 267 322 331 358 337 7 2 325 297 327 306 305 339 351 293 214 189 252 11 324 298 100 328 335 310
322 321 322 321 318 315 312 308 314 317 318 314 308 321 283 263 264 285 290 280 271 279 259 267 266 265 304 321 343 306 294 310 309 330 350 52 319 314 42 50 279 289 12 18 10 352 316
Wind_Speed_850mb
33 33 34 33 34 33 32 32 32 32 34 35 36 36 37 38 39 40 39 39 41 43 44 47 45 44 46 23 50 24 25 11 6 10 54 57 48 39 15 13 33 46 40 51 48 53 60
34 37 37 37 38 39 38 36 35 34 35 36 36 37 38 39 40 41 41 45 46 45 45 46 46 48 26 29 30 24 50 56 28 21 30 52 27 39 12 13 16 11 13 33 41 53 57
36 36 36 37 37 37 37 36 35 35 35 35 36 37 38 39 38 38 39 44 45 43 44 44 43 42 33 61 52 40 46 38 34 32 29 37 53 28 19 7 56 50 33 32 46 29 17
34 37 35 36 36 37 39 40 41 42 43 44 47 49 52 53 53 48 47 41 33 36 36 38 34 29 29 60 47 36 31 51 46 32 28 27 25 23 20 19 18 8 11 29 49 38 24
32 34 36 37 39 41 43 45 47 48 50 51 49 49 50 52 45 44 37 40 34 32 30 30 33 21 36 24 27 16 20 38 49 35 25 25 20 29 18 5 4 12 23 32 44 17 5
34 35 37 39 41 44 46 47 48 50 51 51 50 50 56 52 45 38 30 38 44 20 29 30 12 14 25 39 9 37 12 6 22 17 25 23 14 13 8 12 37 21 37 34 22 9 27
34 35 36 39 41 44 46 48 49 51 51 52 52 51 48 41 34 18 28 41 58 5 47 27 47 50 76 82 83 60 12 14 20 17 14 15 7 38 41 30 20 20 23 32 8 18 24
36 38 40 41 41 44 47 48 50 51 50 50 48 49 44 29 22 19 31 35 41 45 34 60 55 68 85 95 80 93 39 18 8 13 9 8 38 21 15 14 21 30 34 37 18 20 15
39 41 43 45 45 46 48 49 50 51 51 48 45 46 42 25 19 20 27 39 47 43 13 33 64 48 42 27 67 72 57 44 18 14 12 20 12 19 28 24 31 32 37 33 32 29 43
43 44 46 48 50 51 52 53 53 54 52 47 44 43 32 32 6 24 29 52 38 24 6 14 36 20 58 7 7 49 58 45 9 20 16 19 21 27 24 30 35 41 26 23 34 26 22
44 44 46 48 51 53 56 59 60 59 55 48 42 39 24 20 21 30 40 45 37 4 6 20 18 28 9 19 28 28 17 58 38 33 14 13 13 6 27 29 27 38 24 26 34 18 15
46 46 47 49 52 56 60 62 62 62 58 52 43 32 20 17 18 33 40 45 14 9 7 15 18 34 26 34 30 24 39 32 15 45 33 29 31 28 27 29 25 10 12 25 29 1 17
48 48 48 49 51 57 63 66 64 63 59 56 48 29 18 20 20 34 39 28 9 9 17 21 43 26 13 18 20 15 13 1 3 6 17 11 10 8 21 26 21 6 4 3 4 8 32
52 51 51 53 55 57 62 67 66 64 62 64 52 30 14 17 17 35 33 10 11 7 12 38 29 27 13 20 12 22 22 11 7 20 6 8 11 16 5 6 10 14 18 10 14 9 9
53 54 55 56 57 57 59 66 67 65 64 68 54 17 16 12 13 25 17 9 9 4 20 25 33 13 7 20 4 12 9 8 11 18 7 2 9 7 24 19 2 6 21 10 10 26 3
53 55 57 58 61 62 61 64 68 65 65 62 41 21 9 8 15 23 9 6 4 15 23 11 4 15 23 18 14 10 7 3 7 8 4 6 8 11 17 17 7 11 11 11 7 13 8
50 53 56 59 61 63 66 62 68 67 64 60 21 12 8 5 12 6 3 9 17 36 31 10 22 9 12 13 21 9 6 12 5 8 9 5 9 7 9 7 13 5 6 8 6 8 11
52 52 53 56 61 64 66 65 63 65 65 57 20 5 5 7 7 4 3 12 33 29 37 15 8 10 6 9 10 9 9 6 10 3 6 5 2 7 15 24 27 9 12 8 5 12 10
51 53 54 55 58 63 66 65 58 59 56 57 34 12 14 14 5 7 14 19 18 27 23 12 9 3 5 5 8 12 6 14 6 3 6 7 3 7 15 3 4 10 4 3 8 12 15
51 53 55 57 58 60 63 64 57 54 46 40 15 8 12 11 31 4 11 9 16 33 29 35 18 1 6 14 10 11 9 7 14 11 11 12 7 14 9 10 13 15 16 16 3 13 26
51 52 55 55 58 59 59 62 59 51 44 26 11 5 9 8 17 18 14 14 29 19 11 32 7 16 14 11 17 8 7 10 12 20 12 10 8 19 24 31 30 33 32 22 17 18 11
52 52 53 56 56 57 54 56 58 56 47 14 15 13 17 29 25 11 13 6 29 32 21 12 15 31 12 11 16 25 26 19 13 11 20 16 9 15 25 33 36 37 31 27 26 30 22
53 56 55 55 56 55 51 50 53 55 48 17 24 12 14 15 8 12 6 30 31 34 20 37 29 28 18 28 38 54 62 58 28 20 15 18 10 4 14 29 8 9 28 33 14 15 7
58 60 57 54 54 54 50 48 48 48 43 32 27 18 12 11 14 17 33 33 33 35 19 41 39 14 28 74 74 44 48 47 35 33 33 15 11 8 11 10 6 7 23 5 27 23 20
59 60 62 54 54 55 50 47 44 44 43 35 23 10 12 11 25 34 21 34 41 44 22 32 44 53 57 36 8 14 8 7 9 12 15 23 13 5 7 2 15 5 13 13 10 10 12
60 59 63 61 55 55 47 44 42 42 42 42 31 13 17 19 10 16 42 32 21 18 19 26 39 37 41 5 5 6 5 8 6 8 9 3 13 13 6 6 7 7 23 38 11 9 11
65 59 63 59 57 52 44 41 41 40 41 44 38 12 15 24 40 24 11 19 19 9 14 16 36 20 31 10 6 5 7 10 9 13 9 5 6 16 10 4 6 18 42 62 13 2 29
66 64 64 61 56 51 41 40 41 39 38 40 44 6 15 21 62 64 51 39 49 29 6 18 17 10 9 12 7 6 6 6 7 7 10 6 6 5 6 6 5 19 48 6 8 24 34
70 69 66 59 52 50 44 41 40 39 35 37 51 40 29 37 49 71 69 50 48 46 38 5 5 4 7 5 4 6 6 5 9 7 7 3 3 8 7 4 22 43 24 48 48 25 31
Wind_Direction_850mb
39 33 24 22 20 17 14 11 9 7 5 4 2 359 355 350 346 341 335 328 322 317 313 312 312 308 306 271 246 229 250 297 293 283 214 211 214 216 191 207 232 246 252 251 257 255 253
32 27 26 24 22 19 18 16 14 11 6 2 358 353 351 346 340 335 332 328 321 314 308 306 306 305 291 274 307 298 261 258 247 224 217 210 213 217 261 225 233 280 263 271 265 256 258
28 26 27 25 23 22 20 17 14 9 5 2 358 354 351 344 337 330 326 322 320 321 310 300 299 297 268 264 302 296 274 256 224 231 239 216 222 203 232 272 248 250 264 277 259 252 272
25 25 23 19 18 16 13 9 5 1 358 357 355 353 349 346 340 336 336 342 346 336 304 297 297 294 268 306 300 282 255 242 231 236 241 234 223 259 247 255 302 202 227 247 250 244 247
22 18 16 14 11 9 8 5 2 358 356 354 351 347 346 344 342 337 350 359 349 329 318 304 300 308 278 306 277 311 302 239 226 232 242 238 253 247 235 185 337 211 242 232 254 221 223
17 13 9 5 4 2 3 0 358 356 353 348 345 347 351 351 346 336 360 12 10 24 2 331 310 307 278 269 318 320 286 113 196 227 251 245 248 212 192 173 216 216 223 237 255 198 212
7 4 0 360 359 357 359 357 355 353 351 345 344 347 348 347 348 345 354 1 2 289 323 275 283 265 272 277 278 285 336 264 221 206 186 202 188 222 218 228 265 271 265 252 250 202 216
2 360 358 357 357 357 358 355 352 349 346 343 340 342 344 357 5 2 3 9 355 328 313 308 302 288 273 265 271 275 273 290 274 225 196 225 230 247 273 270 234 242 264 265 286 285 251
10 7 2 358 357 359 357 354 348 345 342 340 339 340 341 357 10 9 358 343 326 325 306 335 333 317 318 272 239 260 267 275 250 235 218 223 220 217 239 248 251 249 237 259 263 288 288
7 4 359 357 357 357 355 351 346 342 339 338 338 339 344 348 347 352 330 341 347 332 60 308 348 319 347 186 243 248 255 244 245 219 223 259 249 257 264 243 229 246 250 249 242 251 260
11 7 3 1 0 359 356 351 347 344 339 336 339 338 348 341 342 344 335 347 337 330 50 320 288 305 23 317 317 333 246 231 236 234 178 219 301 261 234 247 234 248 259 239 245 259 249
10 7 6 5 2 359 357 354 350 347 343 337 340 336 337 338 335 349 347 337 339 49 308 320 320 351 9 359 11 354 335 25 295 227 230 235 230 238 244 256 256 286 255 231 251 263 257
8 7 5 3 1 0 359 356 353 350 347 339 340 333 311 323 330 349 345 341 39 86 310 340 329 343 358 344 2 353 358 226 343 7 280 249 237 239 242 256 264 214 29 242 232 185 235
6 4 2 360 356 356 359 358 355 352 350 340 345 319 294 333 332 357 345 39 54 345 305 327 324 318 352 2 4 336 4 10 177 236 247 202 271 225 195 166 244 174 172 189 195 200 255
4 4 3 1 356 353 355 357 355 353 353 345 350 335 329 312 339 348 0 43 190 324 292 327 322 302 327 355 278 336 358 329 41 12 16 49 251 357 311 299 133 269 222 207 290 277 300
2 2 2 1 1 357 354 356 355 354 356 352 352 357 7 317 329 342 66 275 237 272 311 336 314 306 328 328 338 354 325 37 327 56 357 315 324 255 296 341 257 201 284 165 214 226 223
357 359 360 360 360 360 357 355 355 354 358 1 9 358 10 296 285 341 129 241 294 325 335 309 327 301 321 329 315 273 326 325 83 337 292 295 168 275 319 224 238 354 242 207 175 197 192
356 355 356 356 356 358 359 358 357 355 355 4 2 10 356 349 337 7 301 288 318 311 320 277 282 331 337 287 283 316 348 252 29 96 340 317 126 276 248 246 270 263 243 159 232 259 237
358 357 356 355 355 355 356 359 358 358 355 353 343 315 16 315 44 309 302 316 309 310 313 318 299 140 182 264 324 324 302 264 177 354 348 344 307 299 312 316 219 232 185 37 256 235 239
351 352 353 354 354 353 353 355 359 360 353 348 343 349 338 346 352 320 314 291 313 319 311 339 292 143 306 297 237 264 262 270 197 184 295 332 227 241 224 260 322 277 286 305 299 229 230
346 345 345 347 348 352 353 354 355 0 357 358 0 311 10 304 326 316 303 278 323 329 310 310 308 339 337 292 313 266 299 277 213 215 174 151 249 242 242 262 270 268 264 264 265 268 257
342 343 340 339 344 347 350 353 353 355 3 19 357 348 322 293 288 296 301 318 316 337 322 306 319 314 294 261 240 273 277 266 227 197 167 183 237 252 289 278 254 245 238 239 252 274 279
339 339 338 336 338 341 344 347 350 352 356 1 341 316 303 277 282 306 259 320 315 334 298 313 308 314 285 275 285 275 263 255 242 209 201 178 210 225 273 296 138 265 228 224 204 220 242
338 338 334 333 333 334 339 340 345 347 347 340 343 320 290 282 304 302 302 306 324 316 306 313 317 312 297 306 304 286 263 249 235 238 226 207 194 174 266 253 224 42 36 7 201 222 247
331 329 335 329 328 328 330 336 338 341 343 338 339 302 285 280 302 291 309 318 315 315 303 293 311 316 323 306 320 327 329 27 333 38 327 212 195 222 253 305 291 178 39 2 33 222 268
327 329 329 328 325 326 322 327 332 335 334 331 337 305 270 296 249 287 312 296 308 314 318 311 325 338 349 327 8 314 326 304 317 308 264 17 162 193 272 228 249 91 299 320 303 214 284
323 323 328 325 323 323 317 320 325 328 328 325 332 314 263 272 280 269 286 306 292 303 300 310 332 334 7 355 357 336 299 1 341 323 335 79 149 205 222 250 281 313 329 308 196 152 318
322 322 325 323 320 319 311 316 319 322 324 316 323 320 268 258 280 280 277 271 286 285 267 322 331 358 337 7 2 325 297 327 306 305 339 351 293 214 189 252 11 324 298 100 328 335 310
322 321 322 321 318 315 312 308 314 317 318 314 308 321 283 263 264 285 290 280 271 279 259 267 266 265 304 321 343 306 294 310 309 330 350 52 319 314 42 50 279 289 12 18 10 352 316